DLH346 EDDF-KJFK

Flight info

Callsign DLH346
Flight time N/A
Altitude 34000
Route OBOKA3M OBOKA Z29 TORNU DCT VICOT DCT GALSO Q63 ERING L179 UGBET Q60 OKSAW DCT TEWXI DCT VATRY DCT TORLU DCT AGINI DCT DOGAL/M084F350 DCT 54N020W 53N030W 5130N04000W 50N050W DCT ELSIR/N0483F360 N402C ALLEX DCT ENE PARCH4
Aircraft A346/H-SDE2E3FGHIJ3J4J5M1RWXY/LB1D1

Departure

Time N/A
Airport Frankfurt Main Airport (EDDF)

Arrival

Time 2026-05-07 16:55
Airport John F. Kennedy International Airport (KJFK)
Time Latitude Longitude Altitude Speed Heading
2026-05-07 16:31 41.39142 -71.80001 30863 ft 395 kts 227°
2026-05-07 16:32 41.34911 -71.84671 30868 ft 394 kts 227°
2026-05-07 16:32 41.30686 -71.89326 30867 ft 394 kts 227°
2026-05-07 16:33 41.26781 -71.94345 30890 ft 386 kts 237°
2026-05-07 16:33 41.23701 -72.00117 30866 ft 381 kts 239°
2026-05-07 16:33 41.22178 -72.02990 30621 ft 379 kts 239°
2026-05-07 16:34 41.20664 -72.05847 30390 ft 377 kts 239°
2026-05-07 16:34 41.19159 -72.08688 30094 ft 375 kts 239°
2026-05-07 16:34 41.17665 -72.11507 29697 ft 371 kts 239°
2026-05-07 16:34 41.16179 -72.14325 28756 ft 374 kts 239°
2026-05-07 16:35 41.14747 -72.17215 27960 ft 374 kts 241°
2026-05-07 16:35 41.13369 -72.20120 26835 ft 369 kts 241°
2026-05-07 16:35 41.11982 -72.22959 25780 ft 363 kts 240°
2026-05-07 16:35 41.10592 -72.25723 24729 ft 358 kts 240°
2026-05-07 16:36 41.09190 -72.28445 23661 ft 354 kts 240°
2026-05-07 16:36 41.07794 -72.31117 22491 ft 349 kts 239°
2026-05-07 16:36 41.06423 -72.33722 21261 ft 347 kts 239°
2026-05-07 16:36 41.05034 -72.36343 20010 ft 347 kts 238°
2026-05-07 16:37 41.03637 -72.38962 18774 ft 348 kts 237°
2026-05-07 16:37 41.02232 -72.41580 17564 ft 348 kts 236°
2026-05-07 16:37 41.00820 -72.44190 16391 ft 346 kts 236°
2026-05-07 16:37 40.99425 -72.46760 15362 ft 341 kts 236°
2026-05-07 16:38 40.98050 -72.49291 14393 ft 336 kts 236°
2026-05-07 16:38 40.96694 -72.51786 13397 ft 331 kts 236°
2026-05-07 16:38 40.95357 -72.54242 12588 ft 327 kts 236°
2026-05-07 16:38 40.94024 -72.56691 12128 ft 328 kts 237°
2026-05-07 16:39 40.92688 -72.59146 11982 ft 329 kts 237°
2026-05-07 16:39 40.91345 -72.61612 11996 ft 330 kts 237°
2026-05-07 16:39 40.90000 -72.64080 12057 ft 331 kts 237°
2026-05-07 16:39 40.88655 -72.66545 12009 ft 326 kts 237°
2026-05-07 16:40 40.87349 -72.68931 11971 ft 316 kts 237°
2026-05-07 16:40 40.86067 -72.71284 11975 ft 316 kts 237°
2026-05-07 16:40 40.84784 -72.73648 11976 ft 316 kts 237°
2026-05-07 16:40 40.83506 -72.76009 11978 ft 316 kts 237°
2026-05-07 16:41 40.82227 -72.78369 11979 ft 315 kts 237°
2026-05-07 16:41 40.80968 -72.80691 11972 ft 313 kts 237°
2026-05-07 16:41 40.79709 -72.83005 11751 ft 307 kts 237°
2026-05-07 16:41 40.78447 -72.85322 11501 ft 312 kts 237°
2026-05-07 16:42 40.77185 -72.87636 11079 ft 310 kts 237°
2026-05-07 16:42 40.75917 -72.89954 10512 ft 310 kts 237°
2026-05-07 16:42 40.74654 -72.92264 10019 ft 309 kts 237°
2026-05-07 16:42 40.73402 -72.94550 9534 ft 302 kts 237°
2026-05-07 16:43 40.72186 -72.96733 9054 ft 286 kts 237°
2026-05-07 16:43 40.71040 -72.98762 8779 ft 266 kts 237°
2026-05-07 16:43 40.69954 -73.00669 8408 ft 253 kts 237°
2026-05-07 16:43 40.68922 -73.02469 8043 ft 242 kts 237°
2026-05-07 16:44 40.68252 -73.03636 7652 ft 241 kts 237°
2026-05-07 16:44 40.67229 -73.05409 7013 ft 243 kts 237°
2026-05-07 16:44 40.66202 -73.07198 6407 ft 247 kts 237°
2026-05-07 16:44 40.65156 -73.09003 6183 ft 251 kts 237°
2026-05-07 16:45 40.64065 -73.10891 6062 ft 262 kts 237°
2026-05-07 16:45 40.62956 -73.12819 5945 ft 265 kts 237°
2026-05-07 16:45 40.61842 -73.14760 5804 ft 266 kts 237°
2026-05-07 16:45 40.60726 -73.16706 5688 ft 266 kts 237°
2026-05-07 16:46 40.59596 -73.18679 5544 ft 266 kts 237°
2026-05-07 16:46 40.58520 -73.20589 5429 ft 266 kts 240°
2026-05-07 16:46 40.57611 -73.22663 5293 ft 256 kts 246°
2026-05-07 16:46 40.56806 -73.24732 5159 ft 254 kts 247°
2026-05-07 16:47 40.56012 -73.26814 5045 ft 255 kts 247°
2026-05-07 16:47 40.55219 -73.28905 4916 ft 256 kts 247°
2026-05-07 16:47 40.54424 -73.31003 4782 ft 256 kts 247°
2026-05-07 16:47 40.53624 -73.33113 4650 ft 258 kts 247°
2026-05-07 16:48 40.52823 -73.35246 4521 ft 258 kts 249°
2026-05-07 16:48 40.52403 -73.37503 4317 ft 253 kts 270°
2026-05-07 16:48 40.52440 -73.39784 3972 ft 245 kts 276°
2026-05-07 16:48 40.52569 -73.41969 3680 ft 233 kts 277°
2026-05-07 16:49 40.52712 -73.44038 3484 ft 220 kts 277°
2026-05-07 16:49 40.52853 -73.45973 3347 ft 212 kts 277°
2026-05-07 16:49 40.52990 -73.47851 3177 ft 201 kts 277°
2026-05-07 16:49 40.53181 -73.49661 3006 ft 199 kts 281°
2026-05-07 16:50 40.53516 -73.51424 2996 ft 199 kts 290°
2026-05-07 16:50 40.54064 -73.53098 2984 ft 198 kts 298°
2026-05-07 16:50 40.54752 -73.54670 3018 ft 198 kts 302°
2026-05-07 16:50 40.55475 -73.56215 3002 ft 198 kts 302°
2026-05-07 16:51 40.56182 -73.57739 2984 ft 190 kts 302°
2026-05-07 16:51 40.56858 -73.59223 2966 ft 188 kts 301°
2026-05-07 16:51 40.57519 -73.60693 2759 ft 184 kts 301°
2026-05-07 16:51 40.58160 -73.62124 2499 ft 178 kts 301°
2026-05-07 16:52 40.58778 -73.63501 2233 ft 168 kts 301°
2026-05-07 16:52 40.59348 -73.64772 1986 ft 157 kts 301°
2026-05-07 16:52 40.59892 -73.65983 1799 ft 154 kts 301°
2026-05-07 16:52 40.60445 -73.67213 1608 ft 154 kts 301°
2026-05-07 16:53 40.60985 -73.68413 1465 ft 154 kts 301°
2026-05-07 16:53 40.61524 -73.69612 1237 ft 151 kts 302°
2026-05-07 16:53 40.62065 -73.70810 1015 ft 153 kts 301°
2026-05-07 16:53 40.62609 -73.72020 790 ft 153 kts 302°
2026-05-07 16:54 40.63152 -73.73223 518 ft 153 kts 301°
2026-05-07 16:54 40.63681 -73.74415 357 ft 148 kts 301°
2026-05-07 16:54 40.64203 -73.75576 140 ft 147 kts 302°
2026-05-07 16:54 40.64735 -73.76720 28 ft 139 kts 301°
2026-05-07 16:55 40.65097 -73.77527 28 ft 64 kts 301°
2026-05-07 16:55 40.65258 -73.77888 27 ft 40 kts 300°
2026-05-07 16:55 40.65310 -73.78131 32 ft 15 kts 270°
2026-05-07 16:55 40.65307 -73.78190 33 ft 5 kts 268°
2026-05-07 16:56 40.65307 -73.78195 33 ft 1 kts 268°
2026-05-07 16:56 40.65307 -73.78216 34 ft 5 kts 271°
2026-05-07 16:56 40.65350 -73.78369 33 ft 11 kts 293°
2026-05-07 16:57 40.65352 -73.78481 32 ft 14 kts 249°
2026-05-07 16:57 40.65302 -73.78605 32 ft 16 kts 240°
2026-05-07 16:57 40.65250 -73.78725 32 ft 17 kts 240°
2026-05-07 16:57 40.65218 -73.78880 32 ft 18 kts 272°
2026-05-07 16:58 40.65248 -73.79051 32 ft 18 kts 288°
2026-05-07 16:58 40.65286 -73.79218 32 ft 17 kts 280°
2026-05-07 16:58 40.65266 -73.79383 32 ft 19 kts 243°
2026-05-07 16:58 40.65199 -73.79534 32 ft 16 kts 239°
2026-05-07 16:59 40.65140 -73.79669 32 ft 18 kts 239°
2026-05-07 16:59 40.65058 -73.79777 32 ft 18 kts 207°
2026-05-07 16:59 40.64929 -73.79809 32 ft 20 kts 179°
2026-05-07 16:59 40.64789 -73.79798 32 ft 18 kts 168°
2026-05-07 17:00 40.64672 -73.79717 32 ft 21 kts 144°
2026-05-07 17:00 40.64565 -73.79619 32 ft 18 kts 155°
2026-05-07 17:00 40.64431 -73.79588 33 ft 21 kts 178°
2026-05-07 17:00 40.64307 -73.79595 33 ft 17 kts 185°
2026-05-07 17:01 40.64192 -73.79608 33 ft 15 kts 184°
2026-05-07 17:01 40.64079 -73.79595 32 ft 19 kts 162°
2026-05-07 17:01 40.63978 -73.79500 31 ft 17 kts 126°
2026-05-07 17:01 40.63926 -73.79389 30 ft 10 kts 118°
2026-05-07 17:02 40.63929 -73.79308 28 ft 11 kts 52°
2026-05-07 17:02 40.63980 -73.79257 29 ft 5 kts 40°
2026-05-07 17:02 40.63994 -73.79239 31 ft 0 kts 46°
2026-05-07 17:02 40.63991 -73.79243 30 ft 1 kts 46°
2026-05-07 17:03 40.64026 -73.79197 33 ft 9 kts 44°
2026-05-07 17:03 40.64075 -73.79133 33 ft 9 kts 45°
2026-05-07 17:03 40.64123 -73.79093 33 ft 8 kts
2026-05-07 17:03 40.64147 -73.79120 33 ft 2 kts 301°
2026-05-07 17:04 40.64153 -73.79131 33 ft 1 kts 307°
2026-05-07 17:04 40.64158 -73.79140 32 ft 0 kts 308°
2026-05-07 17:04 40.64159 -73.79143 32 ft 0 kts 308°
2026-05-07 17:05 40.64164 -73.79151 32 ft 1 kts 308°
2026-05-07 17:05 40.64165 -73.79152 32 ft 0 kts 308°